This demonstration page uses our WeatherBlox Daily Observations layout. Learn more.

Left ArrowRight Arrow

44.89941, -97.11507

Hourly Observations for January 14, 2016

Temp ( °F °C ) Dew Point ( °F °C ) Humidity (%) Winds ( mph kmh ) Pressure ( in mb ) Visibility ( mi km ) Precip ( " mm )
12:53 am 00:53 Mostly Cloudy 26 -3.3 22 -5.6 84 84 SSE 3 6 29.57 1002 10 16 0.00 0.00
1:53 am 01:53 Clear 25 -3.9 21 -6.1 85 85 SE 3 6 29.55 1001 10 16 0.00 0.00
2:53 am 02:53 Mostly Cloudy 24 -4.4 20 -6.7 84 84 Calm 29.53 1000 10 16 0.00 0.00
3:53 am 03:53 Cloudy 25 -3.9 21 -6.1 85 85 S 5 7 29.53 1000 10 16 0.00 0.00
4:53 am 04:53 Cloudy 25 -3.9 21 -6.1 85 85 SSE 8 13 29.52 1000 10 16 0.00 0.00
5:53 am 05:53 Clear 22 -5.6 19 -7.2 89 89 SE 3 6 29.49 999 10 16 0.00 0.00
6:53 am 06:53 Clear with Mist and Fog 20 -6.7 17 -8.3 89 89 Calm 29.48 998 6 10 0.00 0.00
7:53 am 07:53 Clear with Mist and Fog 19 -7.2 16 -8.9 88 88 SSE 3 6 29.47 998 4 6 0.00 0.00
8:10 am 08:10 Sunny with Mist and Fog 19 -7.2 16 -8.9 88 88 Calm 29.56 1001 2 3 0.00 0.00
8:36 am 08:36 Sunny with Mist and Fog 20 -6.7 17 -8.3 89 89 Calm 29.56 1001 3 5 0.00 0.00
8:53 am 08:53 Sunny with Mist and Fog 21 -6.1 18 -7.8 88 88 SSE 3 6 29.47 998 4 6 0.00 0.00
9:53 am 09:53 Sunny 24 -4.4 20 -6.7 84 84 S 8 13 29.47 998 8 13 0.00 0.00
10:53 am 10:53 Sunny 29 -1.7 23 -5 78 78 SE 5 7 29.45 997 10 16 0.00 0.00
11:53 am 11:53 Sunny 29 -1.7 23 -5 78 78 Calm 29.44 997 10 16 0.00 0.00
12:53 pm 12:53 Sunny 32 0 24 -4.4 73 73 Calm 29.41 996 10 16 0.00 0.00
1:53 pm 13:53 Sunny 33 0.6 24 -4.4 70 70 WSW 3 6 29.39 995 10 16 0.00 0.00
2:53 pm 14:53 Sunny 32 0 25 -3.9 75 75 S 3 6 29.39 995 10 16 0.00 0.00
3:53 pm 15:53 Sunny 33 0.6 24 -4.4 70 70 NW 3 6 29.41 996 10 16 0.00 0.00
4:53 pm 16:53 Cloudy 30 -1.1 23 -5 75 75 N 8 13 29.43 997 10 16 0.00 0.00
5:53 pm 17:53 Cloudy with Light Snow 25 -3.9 21 -6.1 85 85 NNE 7 11 29.47 998 7 11 0.00 0.03
6:19 pm 18:19 Cloudy with Mist and Fog 23 -5 20 -6.7 88 88 NNE 9 15 29.53 1000 6 10 0.00 0.03
6:32 pm 18:32 Cloudy with Mist and Fog 23 -5 20 -6.7 88 88 NNE 13 20 29.53 1000 4 6 0.00 0.03
6:50 pm 18:50 Cloudy with Mist and Fog 21 -6 19 -7 93 93 NNE 16 26 29.56 1001 3 4 0.00 0.03
6:53 pm 18:53 Cloudy with Mist and Fog 22 -5.6 19 -7.2 89 89 NNE 15 24 29.52 1000 3 4 0.00 0.03
7:21 pm 19:21 Cloudy with Mist and Fog 22 -5.6 20 -6.7 92 92 NNE 15 24 29.62 1003 1 2 0.00 0.00
7:31 pm 19:31 Cloudy with Freezing Fog 23 -5 20 -6.7 88 88 NNE 16 26 29.59 1002 1 1 0.00 0.00
7:53 pm 19:53 Mostly Cloudy with Light Snow 23 -5 20 -6.7 88 88 NNE 16 26 29.55 1001 0 0 0.00 0.03
8:04 pm 20:04 Mostly Cloudy with Light Snow 23 -5 21 -6.1 92 92 NNE 17 28 29.59 1002 1 1 0.00 0.03
8:14 pm 20:14 Cloudy with Light Snow 23 -5 20 -6.7 88 88 NNE 16 26 29.59 1002 1 2 0.00 0.03
8:44 pm 20:44 Cloudy with Light Snow 23 -5 20 -6.7 88 88 N 14 22 29.62 1003 1 2 0.00 0.03
8:53 pm 20:53 Cloudy with Light Snow 23 -5 20 -6.7 88 88 N 14 22 29.57 1001 1 2 0.00 0.03
9:00 pm 21:00 Windy with Snow Likely 23 -5 20 -6.7 88 88 N 20 31 29.62 1003 1 2 0.00 0.03
9:15 pm 21:15 Windy with Snow Likely 20 -6.7 15 -9.4 81 81 N 22 35 29.65 1004 1 2 0.00 0.03
9:47 pm 21:47 Cloudy with Light Snow 18 -8 12 -11 79 79 N 18 30 29.65 1004 2 3 0.00 0.03
9:53 pm 21:53 Cloudy with Light Snow 17 -8.3 13 -10.6 84 84 N 16 26 29.60 1003 2 3 0.00 0.03
10:02 pm 22:02 Windy with Snow Likely 17 -8.3 13 -10.6 84 84 N 20 31 29.65 1004 2 2 0.00 0.03
10:15 pm 22:15 Mostly Cloudy with Light Snow 17 -8.3 13 -10.6 84 84 N 18 30 29.65 1004 3 4 0.00 0.03
10:18 pm 22:18 Mostly Cloudy with Light Snow 17 -8.3 13 -10.6 84 84 N 21 33 29.65 1004 3 5 0.00 0.03
10:53 pm 22:53 Cloudy with Haze 17 -8.3 12 -11.1 80 80 N 21 33 29.62 1003 6 10 0.00 0.03
11:11 pm 23:11 Cloudy with Haze 15 -9.4 10 -12.2 80 80 N 21 33 29.68 1005 6 10 0.00 0.00
11:17 pm 23:17 Windy with Snow Likely 15 -9.4 10 -12.2 80 80 N 20 31 29.68 1005 5 8 0.00 0.03
11:26 pm 23:26 Windy with Snow Likely 15 -9.4 9 -12.8 77 77 N 21 33 29.74 1007 4 6 0.00 0.03
11:53 pm 23:53 Windy with Snow Likely 14 -10 8 -13.3 77 77 N 20 31 29.67 1005 7 11 0.00 0.03

Powered by AerisWeather